EW5123 Weather Reports


time (UTC)temp
F
wind
direction
speed
knots
gust
knots
rain 1hr
in
rain 24hr
in
rain mn
in
humidity
%
barometer
mb
20260505063730 44 153 0.0 0.9 0.00 0.08 0.00 96 976.8
20260505063726 44 158 0.0 0.9 0.01 0.09 0.01 96 976.8
20260505062729 44 160 0.0 0.0 0.01 0.08 0.00 96 976.8
20260505062725 44 157 0.0 0.9 0.00 0.08 0.00 96 976.7
20260505061725 44 160 0.0 0.0 0.01 0.08 0.00 96 976.8
20260505061225 44 180 0.0 0.0 0.02 0.08 0.00 95 976.8
20260505060725 44 183 0.0 0.0 0.02 0.08 0.00 96 976.8
20260505060225 44 183 0.0 1.7 0.02 0.08 0.00 95 976.6
20260505055725 44 195 0.0 1.7 0.03 0.08 0.08 95 976.7
20260505055224 44 150 0.0 0.9 0.03 0.08 0.08 95 976.7
20260505054729 43 342 0.0 0.0 0.04 0.08 0.08 95 976.7
20260505054724 44 137 0.0 0.9 0.04 0.08 0.08 95 976.8
20260505053724 44 342 0.0 0.0 0.04 0.08 0.08 95 976.5
20260505053224 44 342 0.0 1.7 0.04 0.08 0.08 95 976.6
20260505052725 44 342 0.9 4.3 0.04 0.08 0.08 95 976.8
20260505052224 44 11 0.9 4.3 0.03 0.07 0.07 95 976.9
20260505051725 44 338 0.9 4.3 0.03 0.07 0.07 95 976.9
20260505051224 44 325 0.9 2.6 0.02 0.06 0.06 95 977.0
20260505050728 44 319 1.7 4.3 0.03 0.06 0.06 94 977.0
20260505050724 44 358 0.9 3.5 0.02 0.06 0.06 95 977.3
20260505041724 45 10 0.0 1.7 0.04 0.04 0.04 94 976.9
20260505041222 45 326 0.0 1.7 0.04 0.04 0.04 93 976.7
20260505040722 45 338 0.0 0.9 0.04 0.04 0.04 93 976.8
20260505040222 45 186 0.0 1.7 0.03 0.03 0.03 93 976.6
20260505035723 45 186 0.9 3.5 0.03 0.03 0.03 93 976.5
20260505035226 45 229 1.7 7.0 0.02 0.02 0.02 92 976.6
20260505035222 45 217 1.7 6.1 0.02 0.02 0.02 92 976.5
20260505034222 45 227 1.7 7.0 0.01 0.01 0.01 91 976.6
20260505033722 46 210 1.7 4.3 0.01 0.01 0.01 90 976.7
20260505033222 46 217 0.9 3.5 0.01 0.01 0.01 89 976.6
20260505032720 47 176 0.0 2.6 0.01 0.01 0.01 83 976.5
20260505032220 48 226 0.0 1.7 0.01 0.01 0.01 78 976.3
20260505031720 48 266 0.9 4.3 0.00 0.00 0.00 77 976.5
20260505031219 48 221 0.9 4.3 0.00 0.00 0.00 75 976.3
20260505030718 48 219 0.0 3.5 0.00 0.00 0.00 75 976.3
20260505030218 48 233 0.0 2.6 0.00 0.00 0.00 75 976.2
20260505025720 49 203 0.0 1.7 0.00 0.00 0.00 74 976.2
20260505025716 49 309 0.0 1.7 0.00 0.00 0.00 71 976.2
20260505024716 49 239 0.0 0.9 0.00 0.00 0.00 71 976.0
20260505024215 49 317 0.0 0.9 0.00 0.00 0.00 72 976.0
20260505023716 49 218 0.0 0.0 0.00 0.00 0.00 72 975.9
20260505023216 49 218 0.0 0.0 0.00 0.00 0.00 71 975.7
20260505022716 49 218 0.0 0.0 0.00 0.00 0.00 70 975.7
20260505022216 49 218 0.0 1.7 0.00 0.00 0.00 70 975.5
20260505021714 49 217 0.0 1.7 0.00 0.00 0.00 69 975.6
20260505021214 49 217 0.0 0.0 0.00 0.00 0.00 69 975.5
20260505020714 50 281 0.0 0.9 0.00 0.00 0.00 68 975.5
20260505020214 50 259 0.0 2.6 0.00 0.00 0.00 67 975.7
20260505015713 50 317 0.0 2.6 0.00 0.00 0.00 67 975.7
20260505015215 50 288 0.0 1.7 0.00 0.00 0.00 67 975.6
20260505014719 51 161 0.0 0.9 0.00 0.00 0.00 66 975.3
20260505014715 50 193 0.0 0.0 0.00 0.00 0.00 66 975.6
20260505013714 51 231 0.0 0.9 0.00 0.00 0.00 61 975.2
20260505013214 51 304 0.0 0.9 0.00 0.00 0.00 58 975.4
20260505012712 51 334 0.9 8.7 0.00 0.00 0.00 62 975.5
20260505012212 52 320 1.7 8.7 0.00 0.00 0.00 62 975.5
20260505011712 53 349 1.7 7.8 0.00 0.00 0.00 56 975.6
20260505011212 53 312 1.7 9.6 0.00 0.00 0.00 53 975.6
20260505010711 54 326 1.7 9.6 0.00 0.00 0.00 49 975.3
20260505010212 55 304 2.6 10.4 0.00 0.00 0.00 46 975.3
20260505005712 55 320 3.5 10.4 0.00 0.00 0.00 46 975.2
20260505005212 55 322 2.6 8.7 0.00 0.00 0.00 45 974.9
20260505004712 54 335 0.9 4.3 0.00 0.00 0.00 45 974.9
20260505004212 54 328 0.0 1.7 0.00 0.00 0.00 47 974.9
20260505003710 54 262 0.0 1.7 0.00 0.00 0.00 47 974.9
20260505003209 55 199 0.0 1.7 0.00 0.00 0.00 47 974.8
20260505002709 55 135 0.0 0.9 0.00 0.00 0.00 46 974.9
20260505002210 55 155 0.0 0.9 0.00 0.00 0.00 48 975.0
20260505001709 55 129 0.0 0.9 0.00 0.00 0.00 47 974.9
20260505001210 55 351 0.0 0.9 0.00 0.00 0.00 48 975.0
20260505000710 55 181 0.0 0.9 0.00 0.00 0.00 47 974.9
20260505000211 55 252 0.0 0.9 0.00 0.00 0.00 45 974.8
20260504235710 56 185 0.9 0.9 0.00 0.00 0.00 46 974.9
20260504235210 56 111 0.9 0.0 0.00 0.00 0.00 45 974.8
20260504203309 67 316 4.3 9.6 0.00 0.00 0.00 23 973.3
20260504202813 67 338 5.2 13.0 0.00 0.00 0.00 24 973.4
20260504202809 67 11 5.2 13.0 0.00 0.00 0.00 24 973.4
20260504201809 66 330 5.2 10.4 0.00 0.00 0.00 24 973.4
20260504201310 65 335 5.2 10.4 0.00 0.00 0.00 24 973.5
20260504200809 64 312 5.2 11.3 0.00 0.00 0.00 24 973.5
20260504200312 64 323 4.3 10.4 0.00 0.00 0.00 24 973.7
20260504200308 64 358 5.2 11.3 0.00 0.00 0.00 25 973.6
20260504195311 64 328 4.3 8.7 0.00 0.00 0.00 26 973.7
20260504195307 64 21 4.3 10.4 0.00 0.00 0.00 25 973.7
20260504194305 65 316 5.2 9.6 0.00 0.00 0.00 26 973.9
20260504193805 65 4 5.2 11.3 0.00 0.00 0.00 26 973.9
20260504193306 65 311 5.2 11.3 0.00 0.00 0.00 26 973.7
20260504192810 66 338 4.3 10.4 0.00 0.00 0.00 24 973.7
20260504192805 66 311 5.2 10.4 0.00 0.00 0.00 25 973.7
20260504191805 67 34 4.3 9.6 0.00 0.00 0.00 22 973.5
20260504191311 70 331 1.7 9.6 0.00 0.00 0.00 20 973.4
20260504191305 68 23 4.3 9.6 0.00 0.00 0.00 21 973.4
20260504190305 71 285 0.9 4.3 0.00 0.00 0.00 18 973.4
20260504185805 72 163 0.0 2.6 0.00 0.00 0.00 19 973.3
20260504185304 73 122 0.0 0.9 0.00 0.00 0.00 16 973.3
20260504184803 72 119 0.9 2.6 0.00 0.00 0.00 15 973.4
20260504184308 71 211 0.9 3.5 0.00 0.00 0.00 18 973.6
20260504184304 71 203 0.9 3.5 0.00 0.00 0.00 15 973.5
20260504183307 68 127 0.9 7.8 0.00 0.00 0.00 20 973.9
20260504183302 69 85 0.0 2.6 0.00 0.00 0.00 20 973.7
20260504182304 66 138 3.5 8.7 0.00 0.00 0.00 20 974.0
20260504181803 64 146 3.5 8.7 0.00 0.00 0.00 21 974.0
20260504181303 64 209 2.6 7.8 0.00 0.00 0.00 23 974.2
20260504180806 66 198 2.6 10.4 0.00 0.00 0.00 22 974.2
20260504180802 65 183 2.6 6.1 0.00 0.00 0.00 22 974.2
20260504175801 66 264 1.7 10.4 0.00 0.00 0.00 21 974.2
20260504175301 67 239 1.7 8.7 0.00 0.00 0.00 20 974.3
20260504174801 68 169 1.7 9.6 0.00 0.00 0.00 19 974.4
20260504174305 68 219 1.7 8.7 0.00 0.00 0.00 20 974.7
20260504174301 68 221 1.7 9.6 0.00 0.00 0.00 21 974.4
20260504173907 67 199 1.7 7.8 0.00 0.00 0.00 23 974.6
20260504173407 67 198 1.7 7.8 0.00 0.00 0.00 24 974.8
20260504172907 66 3 2.6 7.0 0.00 0.00 0.00 24 974.8
20260504171804 65 222 3.5 9.6 0.00 0.00 0.00 26 974.9
20260504171800 65 338 3.5 9.6 0.00 0.00 0.00 26 974.9
20260504170759 65 198 2.6 9.6 0.00 0.00 0.00 26 975.0
20260504170257 65 237 2.6 8.7 0.00 0.00 0.00 25 975.0
20260504160400 65 141 1.7 7.0 0.00 0.00 0.00 24 975.5
20260504150751 63 249 1.7 10.4 0.00 0.00 0.00 26 975.7
20260504150746 63 48 1.7 10.4 0.00 0.00 0.00 26 975.7
20260504150352 62 204 1.7 7.0 0.00 0.00 0.00 27 975.9
20260504140747 58 210 1.7 4.3 0.00 0.00 0.00 32 975.6
20260504140246 58 248 1.7 4.3 0.00 0.00 0.00 32 975.6
20260504130750 49 217 0.0 0.9 0.00 0.00 0.00 41 975.5
20260504130746 51 243 0.0 0.9 0.00 0.00 0.00 38 975.5
20260504110241 39 162 0.0 0.0 0.00 0.00 0.00 60 975.6
20260504100238 40 146 0.0 0.0 0.00 0.00 0.00 57 975.9
20260504081730 48 208 0.0 0.0 0.00 0.00 0.00 44 976.2
20260504081230 49 208 0.0 0.9 0.00 0.00 0.00 42 976.2
20260504080735 52 189 0.0 1.7 0.00 0.00 0.00 36 976.3
20260504080731 51 208 0.0 0.9 0.00 0.00 0.00 36 976.3
20260504080229 51 208 0.0 1.7 0.00 0.00 0.00 36 976.3
20260504070227 53 203 0.0 0.9 0.00 0.00 0.00 34 976.7